This is the latest recevied weather packets stored in our database for station/object K5GHS-1. If no packets are shown the sender has not sent any weather packets the latest 10 day(s).
| Time | Temp. | Humidity | Pressure | Rain* | Wind** | Luminosity | Snow |
|---|---|---|---|---|---|---|---|
| 1777572437 | 16.11° C | 81% | 1013 hPa | 0 mm | - | 108 W/m² | - |
| 1777570309 | 16.11° C | 84% | 1013.5 hPa | 0 mm | - | 27 W/m² | - |
| 1777570004 | 16.11° C | 84% | 1013.5 hPa | 0 mm | - | 49 W/m² | - |
| 1777569700 | 16.11° C | 84% | 1013.4 hPa | 0 mm | - | 48 W/m² | - |
| 1777567571 | 16.67° C | 84% | 1014 hPa | 0 mm | - | 68 W/m² | - |
| 1777566967 | 16.67° C | 85% | 1014.3 hPa | 0 mm | - | 67 W/m² | - |
| 1777566362 | 16.67° C | 84% | 1014.4 hPa | 0 mm | - | 33 W/m² | - |
| 1777566059 | 16.67° C | 84% | 1014.7 hPa | 0 mm | - | 28 W/m² | - |
| 1777565754 | 16.67° C | 83% | 1014.5 hPa | 0 mm | - | 34 W/m² | - |
| 1777565451 | 16.67° C | 83% | 1014.4 hPa | 0 mm | - | 28 W/m² | - |
| 1777565147 | 17.22° C | 82% | 1014.5 hPa | 0 mm | - | 28 W/m² | - |
| 1777563627 | 17.22° C | 82% | 1014 hPa | 0 mm | - | 62 W/m² | - |
| 1777563326 | 17.78° C | 83% | 1014 hPa | 0 mm | - | 71 W/m² | - |
| 1777563023 | 17.78° C | 83% | 1013.9 hPa | 0 mm | - | 102 W/m² | - |
| 1777562718 | 17.22° C | 83% | 1013.9 hPa | 0 mm | - | 114 W/m² | - |
| 1777562412 | 17.78° C | 83% | 1013.7 hPa | 0 mm | - | 118 W/m² | - |
| 1777562109 | 17.22° C | 84% | 1013.8 hPa | 0 mm | - | 139 W/m² | - |
| 1777561503 | 17.22° C | 85% | 1013.7 hPa | 0 mm | - | 99 W/m² | - |
| 1777559073 | 16.11° C | 89% | 1012.8 hPa | 0 mm | - | 73 W/m² | - |
| 1777558767 | 16.11° C | 89% | 1012.7 hPa | 0 mm | - | 82 W/m² | - |
| 1777558464 | 16.11° C | 89% | 1012.7 hPa | 0 mm | - | 68 W/m² | - |
| 1777556642 | 15.56° C | 91% | 1012.7 hPa | 0 mm | - | 87 W/m² | - |
| 1777555425 | 15.56° C | 93% | 1012.5 hPa | 0 mm | - | 73 W/m² | - |
| 1777554819 | 15° C | 93% | 1012.5 hPa | 0 mm | - | 64 W/m² | - |
| 1777551788 | 13.89° C | 93% | 1012.6 hPa | 0 mm | - | 28 W/m² | - |
* Rain latest hour (hover to see other rain measurements)
** Current wind speed in m/s (hover to see current wind gust speed)